OpenBCM V1.13 (Linux)

Packet Radio Mailbox

DB0FHN

[JN59NK Nuernberg]

 Login: GUEST





  
LU9DCE > KEP      30.06.19 20:34l 249 Lines 12197 Bytes #999 (0) @ WW
BID : 27834_LU9DCE
Read: DJ6UX DF7EAV GUEST
Subj: TLE 30 06
Path: DB0FHN<DB0BLO<DB0ERF<DB0RES<IR2UBX<EA2RCF<ZL2BAU<GB7YEW<LU9DCE
Sent: 190630/1801Z 27834@LU9DCE.TOR.BA.ARG.SOAM LinBPQ6.0.18

            __    _  _  ___  ____   ___  ____    ____  ____  ____
           (  )  / )( \/ _ \(    \ / __)(  __)  (  _ \(  _ \/ ___)
           / (_/\) \/ (\__  )) D (( (__  ) _)    ) _ ( ) _ (\___ \
           \____/\____/(___/(____/ \___)(____)  (____/(____/(____/
               ESTACION DE PACKET RADIO - BUENOS AIRES (GF05OM)
                   BOLETINES INFORMATIVOS PROGRAMADOS (BIP)
                  SLACKWARE LINUX - HELLOCODELINUX@GMAIL.COM

+----------------------------------------------------------------------------+
OSCAR 7
1  7530U 74089B   19181.52777962 -.00000050  00000-0 -33711-4 0  9994
2  7530 101.7443 149.0674 0011996 326.5099 147.1619 12.53638664 42007
OSCAR 11 (UoSAT 2)
1 14781U 84021B   19181.50709331  .00000050  00000-0  12221-4 0  9991
2 14781  97.6100 205.6667 0006953 283.6685  76.3755 14.83092596900514
OSCAR 19 (LUSAT)
1 20442U 90005G   19180.91131506 -.00000036 +00000-0 +31709-5 0  9996
2 20442 098.6491 122.8926 0012808 113.9158 246.3368 14.32927759537925
EYESAT A
1 22825U 93061C   19181.46421126 -.00000015  00000-0  12256-4 0  9991
2 22825  98.9032 170.3697 0007857 331.8125  28.2630 14.30061383343634
ITAMSAT
1 22826U 93061D   19180.90353283 -.00000007 +00000-0 +15134-4 0  9997
2 22826 098.8973 169.7863 0008214 321.1583 038.9008 14.30394990343509
RADIO ROSTO
1 23439U 94085A   19180.95717174 -.00000042 +00000-0 +21753-4 0  9996
2 23439 064.8171 097.9076 0146169 111.0041 250.6589 11.27568206009162
JAS 2
1 24278U 96046B   19181.38087595  .00000002  00000-0  38451-4 0  9990
2 24278  98.5386 333.2067 0349834 209.5507 148.5453 13.53092370129383
TECHSAT 1B
1 25397U 98043D   19180.86445256 -.00000039  00000-0  20483-5 0  9994
2 25397  98.6892 120.8733 0001840  43.1600 316.9722 14.23667072 89466
ISS (ZARYA)
1 25544U 98067A   19181.53571759 -.00000468  00000-0  00000+0 0  9990
2 25544  51.6427 295.0400 0008341 102.8005  71.5974 15.51235431177322
PCSAT
1 26931U 01043C   19180.89670823 -.00000057 +00000-0 +10063-4 0  9998
2 26931 067.0518 334.7655 0006837 278.2860 081.7466 14.30545761926500
SAUDISAT 1C
1 27607U 02058C   19180.93284667 -.00000045 +00000-0 +14606-4 0  9992
2 27607 064.5554 015.2284 0080985 254.3949 104.8205 14.75555090888567
CUTE-1
1 27844U 03031E   19180.90964813 +.00000032 +00000-0 +34202-4 0  9991
2 27844 098.6832 188.9552 0009921 006.3790 353.7512 14.22182975829845
CUBESAT XI 4
1 27848U 03031J   19180.90498263 +.00000024 +00000-0 +30791-4 0  9996
2 27848 098.6910 189.4532 0010059 017.5021 342.6501 14.21777489829704
MOZHAYETS 4
1 27939U 03042A   19181.50858103  .00000120  00000-0  30004-4 0  9993
2 27939  98.0421 317.0959 0013625  35.3787 324.8322 14.66787791842273
CUBESAT XI 5
1 28895U 05043F   19181.33505012  .00000065  00000-0  21429-4 0  9996
2 28895  97.9607 323.6678 0015764 318.5078  41.4927 14.63671171729183
CUTE-1.7+APD II
1 32785U 08021C   19181.11489566  .00000117  00000-0  18190-4 0  9998
2 32785  97.5492 180.2904 0011957 219.8291 140.2050 14.88314460605385
DELFI C3
1 32789U 08021G   19181.43738372  .00000647  00000-0  47188-4 0  9996
2 32789  97.4632 230.7482 0013974  86.5689 273.7137 15.06967948608733
SEEDS
1 32791U 08021J   19180.97992369  .00000184  00000-0  24078-4 0  9994
2 32791  97.5274 186.1472 0012868 193.6802 166.4070 14.90826213605798
YUBELEINY
1 32953U 08025A   19181.47575065  .00000021  00000-0  75656-4 0  9992
2 32953  82.5017 137.4379 0020439 101.5587 258.7800 12.43090178503773
PRISM (HITOMI)
1 33493U 09002B   19180.89426308 -.00000274  00000-0 -18386-4 0  9997
2 33493  98.1222 102.2748 0015628 141.5994 218.6342 14.96661547566829
KKS-1 (KISEKI)
1 33499U 09002H   19181.13582323  .00000040  00000-0  13953-4 0  9995
2 33499  98.3496  20.2082 0009477 162.3561 197.7978 14.75444274560915
SWISSCUBE
1 35932U 09051B   19180.93373737 +.00000092 +00000-0 +31941-4 0  9991
2 35932 098.5888 347.2360 0008684 126.3630 233.8369 14.56288021518377
BEESAT
1 35933U 09051C   19180.93601807 +.00000078 +00000-0 +28501-4 0  9996
2 35933 098.5914 349.0017 0006697 136.1913 223.9816 14.56376758518442
ITUPSAT 1
1 35935U 09051E   19181.13766448  .00000048  00000-0  22300-4 0  9992
2 35935  98.6025 349.4468 0009034 135.2162 224.9765 14.55536320518307
XIWANG-1 (HOPE-1)
1 36122U 09072B   19181.06042990 -.00000030  00000-0  32783-4 0  9993
2 36122 100.0720 182.9054 0007511 326.4090  33.6554 13.16349956458373
TISAT 1
1 36799U 10035E   19181.42572400  .00000255  00000-0  31858-4 0  9998
2 36799  98.1571 333.9675 0013326  52.1358 308.1063 14.91108673486517
JUGNU
1 37839U 11058B   19180.61457619  .00000294  00000-0  15156-4 0  9990
2 37839  19.9608 268.5442 0019130  87.3295 342.5244 14.12652890398804
SRMSAT
1 37841U 11058D   19180.61200546  .00000287  00000-0  12453-4 0  9997
2 37841  19.9735 325.5588 0011821 316.7581 130.2028 14.10634177398234
M-CUBED/EXP-1 PRIME
1 37855U 11061F   19181.16438522  .00000882  00000-0  51938-4 0  9996
2 37855 101.7137  82.6515 0173768  42.8200 318.6396 15.05433960418505
HORYU 2
1 38340U 12025D   19181.10225831  .00000100  00000-0  22575-4 0  9996
2 38340  98.3281 220.0352 0012911  88.7237 271.5450 14.75722738382849
STRAND 1
1 39090U 13009E   19181.15084470  .00000012  00000-0  19451-4 0  9990
2 39090  98.4875  26.9170 0007950 253.3100 106.7213 14.35088162332033
SOMP
1 39134U 13015E   19180.87267262 +.00000467 +00000-0 +30800-4 0  9991
2 39134 064.8635 344.2132 0031236 302.5486 057.2625 15.20167689341916
BEESAT 3
1 39135U 13015F   19180.94647170 +.00000512 +00000-0 +35266-4 0  9992
2 39135 064.8693 002.4293 0022582 320.4343 039.5134 15.17478140341569
BEESAT 2
1 39136U 13015G   19180.92179070 +.00000574 +00000-0 +38879-4 0  9991
2 39136 064.8703 006.3655 0019745 299.8523 060.0640 15.16906193341488
CUBEBUG 1
1 39153U 13018D   19181.25225943  .00000079  00000-0  17275-4 0  9998
2 39153  97.9789 279.3123 0017581 156.8442 203.3566 14.80569668333525
ZACUBE
1 39417U 13066B   19181.46010398  .00000127  00000-0  22424-4 0  9999
2 39417  97.5618 194.3002 0058840 357.0517   3.0341 14.81118364302782
TRITON 1
1 39427U 13066M   19180.90789855  .00000146  00000-0  30911-4 0  9990
2 39427  97.6765 157.5929 0114976 129.0652 232.0852 14.67843839299980
GOMX 1
1 39430U 13066Q   19181.41647670  .00000143  00000-0  35232-4 0  9997
2 39430  97.7467 137.1965 0150107 216.9297 142.1482 14.59255895298311
HUMSAT D
1 39433U 13066T   19180.81227460  .00000451  00000-0  49298-4 0  9993
2 39433  97.5527 227.8638 0029157 263.2035  96.5866 14.92195899304734
CUBEBUG 2
1 39440U 13066AA  19181.00577275  .00000133  00000-0  25441-4 0  9996
2 39440  97.6018 178.7742 0081511  48.9864 311.8357 14.75856192301644
FUNCUBE 1
1 39444U 13066AE  19181.04904773  .00000156  00000-0  25594-4 0  9995
2 39444  97.5599 195.8690 0057823 352.2495   7.7819 14.81937297301617
UWE-3
1 39446U 13066AG  19180.99047311  .00000117  00000-0  22210-4 0  9995
2 39446  97.5807 185.7947 0070729  24.4330 336.0207 14.78390684300932
SPROUT
1 39770U 14029E   19181.33742545  .00000485  00000-0  59818-4 0  9997
2 39770  97.8850 284.5546 0010212  53.8278 306.3881 14.87347372276569
UNISAT 6
1 40012U 14033C   19180.87678002  .00000104  00000-0  22792-4 0  9996
2 40012  97.7565  47.0060 0059747  62.4464 298.2798 14.73979924270338
DUCHIFAT 1
1 40021U 14033M   19181.35840169  .00000165  00000-0  22669-4 0  9995
2 40021  97.9241 105.9906 0013476  18.2042 341.9656 14.90632133273287
QB50P1
1 40025U 14033R   19180.72151154 +.00000172 +00000-0 +24298-4 0  9996
2 40025 097.9061 100.3882 0013246 029.1722 331.0232 14.88945492272454
CHUBUSAT 1
1 40300U 14070C   19181.28479671  .00000273  00000-0  14886-4 0  9996
2 40300  97.3264 255.1739 0020617  18.8638   6.4531 15.22089990257785
NUDT-PHONESAT
1 40900U 15049B   19181.54177314  .00001250  00000-0  56378-4 0  9995
2 40900  97.4367 190.7596 0014044 137.2215 340.5862 15.22796169209469
ZDPS 2A
1 40901U 15049C   19181.48940700  .00000662  00000-0  36117-4 0  9991
2 40901  97.4592 187.1421 0013986 155.0324 357.3271 15.17729283209029
ZDPS 2B
1 40902U 15049D   19181.51679281  .00000457  00000-0  26081-4 0  9990
2 40902  97.4535 184.6713 0014116 152.1656   3.7645 15.17543573209006
XW-2A
1 40903U 15049E   19181.52815244  .00001300  00000-0  32572-4 0  9993
2 40903  97.3368 224.3599 0015492 101.0867   4.9991 15.41862228212075
KAITUO 1A
1 40904U 15049F   19181.49784814  .00000213  00000-0  14783-4 0  9994
2 40904  97.4662 183.3044 0014891 160.4566 350.7494 15.15364013208783
OBJECT G
1 40905U 15049G   19181.51414465  .00000106  00000-0  93615-5 0  9993
2 40905  97.4703 180.8645 0016146 155.8484 320.9686 15.14291775208663
XW-2C
1 40906U 15049H   19181.35632813  .00000245  00000-0  16329-4 0  9995
2 40906  97.4672 183.2411 0015627 152.8204 314.2231 15.15674023208762
XW-2D
1 40907U 15049J   19181.47296023  .00000626  00000-0  36104-4 0  9994
2 40907  97.4651 183.0334 0015006 149.3371   3.7042 15.15864917208795
LILACSAT 2
1 40908U 15049K   19181.56297824 -.00000014  00000-0  28545-5 0  9998
2 40908  97.4776 181.9654 0016452 155.8559 322.3562 15.13800049208603
XW-2F
1 40910U 15049M   19181.48970347  .00000769  00000-0  41861-4 0  9991
2 40910  97.4618 185.0456 0015749 142.9577   9.5703 15.17296838208803
XW-2B
1 40911U 15049N   19181.56577529  .00000207  00000-0  14283-4 0  9991
2 40911  97.4673 183.7749 0014665 150.1075 327.9990 15.15792023208704
KAITUO 1B
1 40912U 15049P   19181.50223396  .00000659  00000-0  34106-4 0  9993
2 40912  97.4492 188.7034 0016346 126.9575  22.5010 15.19606531209108
TIANWANG 1C (TW-1C)
1 40926U 15051B   19181.42724341  .00007711  00000-0  11275-3 0  9995
2 40926  97.1354 227.5863 0007004 343.7654 141.0834 15.55871108211981
